Location: Lugrin
(46.4033°N, 6.6674°E)
Time: 09:17:37
(UTC+00:00)

N. Korean satellite - Pass Details

Date: 27 November 2020
Orbit: 453 x 502 km, 97.2° (Epoch: 16 January)

Event Time Altitude Azimuth Distance (km) Brightness Sun altitude
Rises 16:31:37 0° 181° (S) 2,453 10.5 -7.2°
Reaches altitude 10° 16:33:42 10° 188° (S) 1,587 9.6 -7.5°
Maximum altitude 16:36:57 43° 261° (W) 651 7.8 -8.0°
Drops below altitude 10° 16:40:16 10° 335° (NNW) 1,613 9.3 -8.6°
Sets 16:42:24 0° 342° (NNW) 2,499 10.1 -8.9°
